TimeEST,TemperatureF,Dew PointF,Humidity,Sea Level PressureIn,VisibilityMPH,Wind Direction,Wind SpeedMPH,Gust SpeedMPH,PrecipitationIn,Events,Conditions,WindDirDegrees,DateUTC
12:15 AM,35.6,26.6,70,30.23,10.0,WNW,6.9,-,N/A,,Clear,300,2013-02-17 05:15:00
12:35 AM,35.6,26.6,70,30.24,10.0,WNW,5.8,-,N/A,,Clear,300,2013-02-17 05:35:00
12:55 AM,35.6,26.6,70,30.24,10.0,NW,5.8,-,N/A,,Clear,310,2013-02-17 05:55:00
1:15 AM,35.6,26.6,70,30.25,10.0,NW,5.8,-,N/A,,Clear,320,2013-02-17 06:15:00
1:35 AM,35.6,24.8,65,30.25,10.0,NW,5.8,-,N/A,,Clear,320,2013-02-17 06:35:00
1:55 AM,33.8,26.6,75,30.25,10.0,NW,5.8,-,N/A,,Clear,310,2013-02-17 06:55:00
2:15 AM,33.8,26.6,75,30.25,10.0,WNW,4.6,-,N/A,,Clear,300,2013-02-17 07:15:00
2:35 AM,33.8,26.6,75,30.25,10.0,WNW,3.5,-,N/A,,Clear,300,2013-02-17 07:35:00
2:55 AM,33.8,26.6,75,30.25,10.0,NW,5.8,-,N/A,,Clear,320,2013-02-17 07:55:00
3:15 AM,33.8,24.8,70,30.25,10.0,NW,4.6,-,N/A,,Clear,320,2013-02-17 08:15:00
3:35 AM,32.0,26.6,80,30.25,10.0,WNW,4.6,-,N/A,,Clear,300,2013-02-17 08:35:00
3:55 AM,32.0,26.6,80,30.26,10.0,NW,4.6,-,N/A,,Clear,310,2013-02-17 08:55:00
4:15 AM,32.0,26.6,80,30.25,10.0,NW,4.6,-,N/A,,Clear,310,2013-02-17 09:15:00
4:35 AM,32.0,28.4,87,30.27,10.0,West,4.6,-,N/A,,Clear,280,2013-02-17 09:35:00
4:55 AM,32.0,26.6,80,30.27,10.0,WNW,5.8,-,N/A,,Clear,300,2013-02-17 09:55:00
5:15 AM,32.0,26.6,80,30.27,10.0,NW,4.6,-,N/A,,Clear,310,2013-02-17 10:15:00
5:35 AM,32.0,28.4,87,30.28,10.0,West,3.5,-,N/A,,Clear,280,2013-02-17 10:35:00
5:55 AM,32.0,26.6,80,30.28,10.0,NW,4.6,-,N/A,,Clear,320,2013-02-17 10:55:00
6:15 AM,32.0,28.4,87,30.29,10.0,NW,3.5,-,N/A,,Clear,320,2013-02-17 11:15:00
7:15 AM,30.2,26.6,86,30.32,10.0,SW,4.6,-,N/A,,Clear,230,2013-02-17 12:15:00
7:35 AM,28.4,26.6,93,30.32,10.0,West,4.6,-,N/A,,Clear,260,2013-02-17 12:35:00
8:15 AM,32.0,28.4,87,30.34,10.0,WNW,4.6,-,N/A,,Clear,300,2013-02-17 13:15:00
8:35 AM,33.8,28.4,81,30.35,10.0,WNW,3.5,-,N/A,,Clear,290,2013-02-17 13:35:00
8:55 AM,35.6,30.2,81,30.36,10.0,NW,5.8,-,N/A,,Clear,320,2013-02-17 13:55:00
9:15 AM,35.6,26.6,70,30.37,10.0,NW,6.9,-,N/A,,Clear,320,2013-02-17 14:15:00
9:35 AM,39.2,26.6,61,30.38,10.0,NNW,4.6,-,N/A,,Clear,330,2013-02-17 14:35:00
9:55 AM,39.2,24.8,56,30.38,10.0,NNE,4.6,-,N/A,,Clear,20,2013-02-17 14:55:00
10:15 AM,41.0,23.0,49,30.38,10.0,North,5.8,-,N/A,,Clear,10,2013-02-17 15:15:00
10:35 AM,41.0,23.0,49,30.39,10.0,North,4.6,-,N/A,,Clear,360,2013-02-17 15:35:00
10:55 AM,41.0,21.2,45,30.39,10.0,NNW,5.8,-,N/A,,Clear,340,2013-02-17 15:55:00
11:15 AM,42.8,21.2,42,30.40,10.0,NW,4.6,-,N/A,,Clear,320,2013-02-17 16:15:00
11:35 AM,42.8,21.2,42,30.40,10.0,Calm,Calm,-,N/A,,Clear,0,2013-02-17 16:35:00
11:55 AM,44.6,17.6,34,30.39,10.0,NE,5.8,-,N/A,,Clear,40,2013-02-17 16:55:00
12:15 PM,44.6,19.4,37,30.38,10.0,North,6.9,-,N/A,,Clear,350,2013-02-17 17:15:00
12:35 PM,44.6,19.4,37,30.38,10.0,Calm,Calm,-,N/A,,Clear,0,2013-02-17 17:35:00
12:55 PM,46.4,19.4,34,30.38,10.0,NW,5.8,-,N/A,,Clear,320,2013-02-17 17:55:00
1:15 PM,46.4,19.4,34,30.36,10.0,WNW,5.8,-,N/A,,Clear,290,2013-02-17 18:15:00
1:55 PM,50.0,17.6,28,30.34,10.0,WNW,6.9,-,N/A,,Clear,300,2013-02-17 18:55:00
2:15 PM,50.0,17.6,28,30.33,10.0,West,6.9,-,N/A,,Clear,270,2013-02-17 19:15:00
2:35 PM,50.0,19.4,30,30.32,10.0,West,3.5,-,N/A,,Clear,280,2013-02-17 19:35:00
2:55 PM,51.8,19.4,28,30.31,10.0,Calm,Calm,-,N/A,,Clear,0,2013-02-17 19:55:00
3:15 PM,51.8,17.6,26,30.31,10.0,NW,4.6,-,N/A,,Clear,320,2013-02-17 20:15:00
3:35 PM,51.8,17.6,26,30.31,10.0,WNW,9.2,-,N/A,,Clear,290,2013-02-17 20:35:00
3:55 PM,51.8,19.4,28,30.30,10.0,West,4.6,-,N/A,,Clear,270,2013-02-17 20:55:00
4:15 PM,51.8,17.6,26,30.30,10.0,WNW,4.6,-,N/A,,Clear,300,2013-02-17 21:15:00
4:35 PM,51.8,17.6,26,30.29,10.0,Calm,Calm,-,N/A,,Clear,0,2013-02-17 21:35:00
4:55 PM,51.8,17.6,26,30.28,10.0,WSW,5.8,-,N/A,,Clear,250,2013-02-17 21:55:00
5:15 PM,51.8,17.6,26,30.28,10.0,Calm,Calm,-,N/A,,Clear,0,2013-02-17 22:15:00
5:35 PM,51.8,19.4,28,30.29,10.0,West,4.6,-,N/A,,Clear,280,2013-02-17 22:35:00
5:55 PM,51.8,21.2,30,30.30,10.0,West,5.8,-,N/A,,Clear,280,2013-02-17 22:55:00
6:15 PM,50.0,19.4,30,30.30,10.0,WNW,4.6,-,N/A,,Clear,290,2013-02-17 23:15:00
6:35 PM,46.4,21.2,37,30.30,10.0,Calm,Calm,-,N/A,,Clear,0,2013-02-17 23:35:00
6:55 PM,44.6,21.2,39,30.30,10.0,Calm,Calm,-,N/A,,Clear,0,2013-02-17 23:55:00
7:15 PM,41.0,28.4,61,30.31,10.0,Calm,Calm,-,N/A,,Clear,0,2013-02-18 00:15:00
7:55 PM,37.4,30.2,75,30.31,10.0,Calm,Calm,-,N/A,,Clear,0,2013-02-18 00:55:00
8:15 PM,39.2,32.0,75,30.32,10.0,Calm,Calm,-,N/A,,Clear,0,2013-02-18 01:15:00
8:35 PM,39.2,28.4,65,30.32,10.0,Calm,Calm,-,N/A,,Clear,0,2013-02-18 01:35:00
8:55 PM,37.4,30.2,75,30.32,10.0,SSE,3.5,-,N/A,,Clear,150,2013-02-18 01:55:00
9:15 PM,35.6,30.2,81,30.33,10.0,Calm,Calm,-,N/A,,Clear,0,2013-02-18 02:15:00
9:35 PM,35.6,32.0,87,30.33,10.0,Calm,Calm,-,N/A,,Clear,0,2013-02-18 02:35:00
9:55 PM,35.6,32.0,87,30.34,10.0,Calm,Calm,-,N/A,,Clear,0,2013-02-18 02:55:00
10:15 PM,35.6,32.0,87,30.35,10.0,Calm,Calm,-,N/A,,Clear,0,2013-02-18 03:15:00
10:35 PM,33.8,30.2,87,30.35,10.0,Calm,Calm,-,N/A,,Clear,0,2013-02-18 03:35:00
10:55 PM,33.8,32.0,93,30.35,10.0,Calm,Calm,-,N/A,,Clear,0,2013-02-18 03:55:00
11:15 PM,35.6,32.0,87,30.35,10.0,Calm,Calm,-,N/A,,Clear,0,2013-02-18 04:15:00
11:35 PM,33.8,32.0,93,30.35,10.0,Calm,Calm,-,N/A,,Clear,0,2013-02-18 04:35:00
11:55 PM,33.8,30.2,87,30.35,10.0,Calm,Calm,-,N/A,,Clear,0,2013-02-18 04:55:00